Regional Weather Roundup
Issued by NWS

Home | Current Version | Previous Version | Text Only | Print | Product List | Glossary Off
Versions: 1 2 3 4 5 6 7 8 9 10 11 12 13 14 15 16 17 18 19 20 21 22 23 24 25 26 27 28 29 30 31 32 33 34 35 36 37 38 39 40 41 42 43 44 45 46 47 48 49 50

000
ASUS43 KLMK 280502
RWRKY
KENTUCKY REGIONAL WEATHER ROUNDUP
NATIONAL WEATHER SERVICE LOUISVILLE KY
1200 AM EST FRI NOV 28 2014

NOTE "FAIR" INDICATES FEW OR NO CLOUDS BELOW 12,000 FEET
WITH NO SIGNIFICANT WEATHER AND/OR OBSTRUCTIONS TO VISIBILITY.

KYZ001>023-026-027-061>063-070>075-280600-
WESTERN AND SOUTH CENTRAL KENTUCKY

CITY           SKY/WX    TMP DP  RH WIND       PRES   REMARKS
PADUCAH        CLEAR     26  23  88 CALM      30.45F
HENDERSON      CLEAR     21  18  86 CALM      30.46S
OWENSBORO      FLURRIES  24  21  88 MISG      30.46F
HOPKINSVILLE   MOCLDY    29  24  81 SE2       30.45F
BOWLING GREEN  CLEAR     27  17  66 CALM      30.46F
GLASGOW        NOT AVBL
$$

KYZ024-025-028>034-038-045-046-053-280600-
NORTH CENTRAL KENTUCKY

CITY           SKY/WX    TMP DP  RH WIND       PRES   REMARKS
LOUISVILLE/SDF CLOUDY    30  21  69 W10       30.43F WCI  21
LOUISVILLE/LOU CLOUDY    29  22  75 W6        30.43F WCI  23
FORT KNOX      CLOUDY    25  20  82 SW7       30.42S WCI  17
$$

KYZ035>037-039>044-047>052-055>060-089>105-280600-
NORTHEAST KENTUCKY

CITY           SKY/WX    TMP DP  RH WIND       PRES   REMARKS
LEXINGTON      CLOUDY    27  17  66 W8        30.40S WCI  19
COVINGTON      NOT AVBL
FRANKFORT      CLOUDY    28  17  63 W5        30.40F WCI  23
$$

KYZ054-064>069-076>088-106>120-280600-
SOUTHEAST KENTUCKY

CITY           SKY/WX    TMP DP  RH WIND       PRES   REMARKS
JACKSON        CLOUDY    28  20  71 W9        30.35S WCI  19
LONDON         CLOUDY    29  20  69 W8        30.39F WCI  21
SOMERSET       NOT AVBL
MIDDLESBORO    NOT AVBL
MONTICELLO     CLOUDY    29  20  69 NW7       30.45F WCI  22
$$




USA.gov is the U.S. government's official web portal to all federal, state and local government web resources and services.